JOHN2 Weather Reports


time (UTC)temp
C
wind
direction
speed
KPH
gust
KPH
rain 1hr
cm
rain 24hr
cm
rain mn
cm
humidity
%
barometer
mb
20260507060601 11 336 0.0 14.5 0.00 0.79 0.00 80 1011.2
20260507060059 11 339 1.6 17.7 0.00 0.79 0.00 80 1011.2
20260507055557 11 302 3.2 12.9 0.00 0.79 0.00 81 1011.2
20260507055057 11 9 0.0 14.5 0.00 0.79 0.00 82 1011.1
20260507054607 11 340 3.2 14.5 0.00 0.79 0.00 82 1011.1
20260507054056 11 235 1.6 14.5 0.00 0.79 0.00 82 1011.1
20260507053555 11 318 3.2 14.5 0.00 0.79 0.00 83 1011.0
20260507053055 11 10 4.8 16.1 0.00 0.79 0.00 83 1010.9
20260507052554 11 347 4.8 16.1 0.00 0.79 0.00 83 1011.0
20260507052054 12 331 3.2 14.5 0.00 0.79 0.00 84 1011.0
20260507051555 12 360 3.2 14.5 0.00 0.79 0.00 84 1011.2
20260507051053 12 320 1.6 14.5 0.00 0.79 0.00 84 1011.3
20260507050552 12 346 0.0 14.5 0.00 0.79 0.00 85 1011.1
20260507050052 12 306 6.4 14.5 0.00 0.79 0.00 85 1010.9
20260507045556 12 311 8.0 16.1 0.00 0.79 0.00 85 1011.0
20260507045051 12 312 4.8 16.1 0.00 0.79 0.00 85 1011.2
20260507044551 12 340 3.2 20.9 0.00 0.79 0.00 85 1011.2
20260507044050 12 311 6.4 20.9 0.00 0.79 0.00 84 1011.3
20260507043549 12 328 3.2 17.7 0.00 0.79 0.00 84 1011.4
20260507043047 12 338 3.2 17.7 0.00 0.79 0.00 84 1011.1
20260507042547 12 294 4.8 17.7 0.00 0.79 0.00 83 1011.1
20260507042045 12 328 4.8 17.7 0.00 0.79 0.00 82 1011.1
20260507041553 12 355 6.4 16.1 0.00 0.79 0.00 82 1010.9
20260507041045 12 345 9.7 16.1 0.00 0.79 0.79 81 1011.0
20260507040544 12 20 6.4 16.1 0.00 0.79 0.79 82 1011.1
20260507040042 12 327 3.2 19.3 0.00 0.79 0.79 82 1011.1
20260507035540 12 355 4.8 9.7 0.00 0.79 0.79 81 1011.1
20260507035041 12 336 0.0 12.9 0.00 0.79 0.79 81 1011.1
20260507034540 12 5 6.4 12.9 0.00 0.79 0.79 81 1010.8
20260507034039 12 330 4.8 12.9 0.00 0.79 0.79 81 1011.2
20260507033540 13 340 3.2 12.9 0.00 0.79 0.79 81 1010.8
20260507033042 13 329 1.6 14.5 0.00 0.79 0.79 81 1011.1
20260507032535 13 334 0.0 14.5 0.00 0.79 0.79 81 1010.8
20260507032035 13 17 1.6 17.7 0.00 0.79 0.79 81 1010.3
20260507031535 13 14 6.4 17.7 0.00 0.79 0.79 80 1010.2
20260507031034 13 337 3.2 20.9 0.00 0.79 0.79 80 1010.6
20260507030532 13 18 9.7 20.9 0.00 0.79 0.79 81 1010.8
20260507030033 13 19 8.0 19.3 0.00 0.79 0.79 81 1010.6
20260507025531 13 349 6.4 17.7 0.00 0.79 0.79 80 1010.7
20260507025030 13 5 0.0 14.5 0.00 0.79 0.79 80 1010.5
20260507024530 13 5 3.2 17.7 0.00 0.79 0.79 78 1010.5
20260507024030 13 342 6.4 17.7 0.00 0.79 0.79 78 1010.6
20260507023528 13 316 9.7 16.1 0.00 0.79 0.79 77 1010.7
20260507023027 14 329 4.8 20.9 0.00 0.79 0.79 77 1010.5
20260507022527 14 318 11.3 20.9 0.00 0.79 0.79 77 1010.4
20260507022027 14 274 8.0 22.5 0.00 0.79 0.79 77 1010.3
20260507021526 14 316 11.3 22.5 0.00 0.79 0.79 77 1010.3
20260507021027 14 269 11.3 22.5 0.00 0.79 0.79 77 1010.2
20260507020525 14 322 8.0 22.5 0.00 0.79 0.79 78 1010.3
20260507020027 15 323 3.2 16.1 0.00 0.79 0.79 78 1010.3
20260507015523 15 304 8.0 19.3 0.00 0.79 0.79 78 1010.4
20260507015026 15 315 9.7 19.3 0.00 0.79 0.79 77 1010.5
20260507014534 15 337 8.0 25.7 0.00 0.79 0.79 77 1010.4
20260507014022 15 279 9.7 25.7 0.00 0.79 0.79 77 1010.3
20260507013522 15 296 6.4 20.9 0.00 0.79 0.79 77 1010.5
20260507013034 15 280 9.7 20.9 0.00 0.79 0.79 77 1010.5
20260507012520 15 355 8.0 24.1 0.00 0.79 0.79 77 1010.3
20260507012020 15 271 6.4 24.1 0.00 0.79 0.79 76 1010.5
20260507011531 15 312 11.3 22.5 0.00 0.79 0.79 76 1010.3
20260507011016 15 311 12.9 20.9 0.00 0.79 0.79 76 1010.3
20260507010517 15 294 11.3 25.7 0.00 0.79 0.79 77 1010.2
20260507010015 15 294 14.5 25.7 0.00 0.79 0.79 76 1009.9
20260507005518 15 292 11.3 20.9 0.00 0.79 0.79 77 1010.1
20260507005012 15 322 11.3 25.7 0.00 0.79 0.79 77 1009.9
20260507004516 15 298 12.9 24.1 0.00 0.79 0.79 77 1009.8
20260507004012 16 317 11.3 25.7 0.00 0.79 0.79 76 1009.7
20260507003512 16 295 14.5 25.7 0.00 0.79 0.79 77 1009.8
20260507003010 16 305 14.5 24.1 0.00 0.79 0.79 77 1009.8
20260507002510 16 298 12.9 24.1 0.00 0.79 0.79 77 1009.5
20260507002009 16 297 12.9 27.4 0.00 0.79 0.79 77 1009.2
20260507001508 16 294 9.7 24.1 0.00 0.79 0.79 78 1009.3
20260507001009 16 288 11.3 19.3 0.00 0.79 0.79 78 1009.2
20260507000511 16 310 6.4 22.5 0.00 0.79 0.79 79 1009.0
20260507000019 16 288 12.9 22.5 0.00 0.79 0.79 79 1008.8
20260506235506 16 284 8.0 17.7 0.00 0.79 0.79 80 1008.8
20260506235006 16 293 9.7 20.9 0.00 0.79 0.79 80 1008.7
20260506234505 16 284 9.7 20.9 0.00 0.79 0.79 80 1008.4
20260506234005 16 301 8.0 17.7 0.00 0.79 0.79 80 1008.3
20260506233504 16 268 9.7 22.5 0.00 0.79 0.79 80 1008.2
20260506233005 16 304 12.9 22.5 0.00 0.79 0.79 80 1008.0
20260506232504 17 292 8.0 24.1 0.00 0.79 0.79 81 1008.0
20260506232004 17 275 16.1 24.1 0.00 0.79 0.79 82 1008.1
20260506231504 17 284 8.0 16.1 0.00 0.79 0.79 83 1008.1
20260506231003 17 288 11.3 17.7 0.00 0.79 0.79 84 1008.1
20260506230504 17 309 9.7 19.3 0.00 0.79 0.79 83 1008.0
20260506230004 17 311 6.4 19.3 0.00 0.79 0.79 84 1007.9
20260506225507 18 287 9.7 19.3 0.00 0.79 0.79 85 1007.9
20260506225004 18 283 4.8 12.9 0.00 0.79 0.79 87 1007.9
20260506224504 18 269 3.2 12.9 0.00 0.79 0.79 87 1007.7
20260506224004 18 271 1.6 17.7 0.00 0.79 0.79 87 1007.7
20260506223502 18 282 6.4 17.7 0.00 0.79 0.79 87 1007.6
20260506223005 18 294 4.8 11.3 0.00 0.79 0.79 87 1007.7
20260506222503 18 276 4.8 12.9 0.00 0.79 0.79 87 1007.5
20260506222002 18 236 3.2 16.1 0.00 0.79 0.79 87 1007.4
20260506221502 18 235 6.4 16.1 0.00 0.79 0.79 86 1007.5
20260506221002 18 194 6.4 16.1 0.00 0.79 0.79 86 1007.3
20260506220502 18 226 6.4 16.1 0.00 0.79 0.79 86 1007.2
20260506220001 18 209 6.4 17.7 0.00 0.79 0.79 85 1007.2
20260506215502 18 242 6.4 17.7 0.00 0.79 0.79 85 1007.1
20260506215002 18 232 8.0 16.1 0.00 0.79 0.79 85 1007.1
20260506214502 18 236 6.4 16.1 0.00 0.79 0.79 85 1007.1
20260506214002 18 208 8.0 19.3 0.00 0.79 0.79 85 1006.9
20260506213501 18 240 6.4 19.3 0.00 0.79 0.79 85 1006.9
20260506213001 18 219 4.8 11.3 0.00 0.79 0.79 85 1006.8
20260506212504 18 236 4.8 11.3 0.00 0.79 0.79 84 1006.8
20260506212003 18 228 3.2 11.3 0.00 0.79 0.79 84 1006.8
20260506211601 18 232 1.6 11.3 0.00 0.79 0.79 84 1006.8
20260506211100 18 213 4.8 9.7 0.00 0.79 0.79 83 1006.6
20260506210601 19 213 0.0 12.9 0.00 0.79 0.79 83 1006.6
20260506210126 19 226 4.8 17.7 0.00 0.79 0.79 82 1006.6
20260506205600 19 205 6.4 17.7 0.00 0.79 0.79 82 1006.6
20260506205101 19 235 8.0 16.1 0.00 0.79 0.79 82 1006.6
20260506204600 18 229 6.4 19.3 0.00 0.79 0.79 83 1006.6
20260506204059 18 275 9.7 19.3 0.00 0.79 0.79 83 1006.6
20260506203559 18 216 6.4 20.9 0.00 0.79 0.79 83 1006.5
20260506203103 18 242 11.3 20.9 0.00 0.79 0.79 83 1006.6
20260506202559 18 255 9.7 20.9 0.00 0.79 0.79 84 1006.6
20260506202058 18 234 11.3 20.9 0.00 0.79 0.79 83 1006.5
20260506201600 18 210 4.8 19.3 0.00 0.79 0.79 84 1006.5
20260506201100 18 246 8.0 22.5 0.00 0.79 0.79 84 1006.5
20260506200557 18 238 9.7 22.5 0.00 0.79 0.79 84 1006.5
20260506200140 18 240 8.0 16.1 0.00 0.79 0.79 85 1006.6
20260506195557 18 225 3.2 12.9 0.00 0.79 0.79 86 1006.6
20260506195057 18 231 6.4 14.5 0.00 0.79 0.79 86 1006.7
20260506194604 18 247 6.4 17.7 0.00 0.79 0.79 86 1006.8
20260506194056 18 254 8.0 17.7 0.00 0.79 0.79 86 1006.8
20260506193555 18 259 11.3 17.7 0.00 0.79 0.79 86 1006.8
20260506193055 17 252 8.0 17.7 0.00 0.79 0.79 86 1006.9
20260506192556 17 250 9.7 16.1 0.00 0.79 0.79 86 1006.9
20260506192056 17 250 3.2 12.9 0.00 0.79 0.79 87 1006.9
20260506191555 17 223 8.0 14.5 0.00 0.79 0.79 87 1006.9
20260506191055 17 234 3.2 14.5 0.00 0.79 0.79 88 1006.9
20260506190555 17 221 3.2 11.3 0.00 0.79 0.79 88 1006.9
20260506190056 17 263 6.4 16.1 0.00 0.79 0.79 88 1006.9
20260506185553 17 246 4.8 16.1 0.00 0.79 0.79 88 1007.0
20260506185055 17 250 8.0 16.1 0.00 0.79 0.79 89 1007.0
20260506184555 17 246 6.4 17.7 0.00 0.79 0.79 89 1007.0
20260506184054 17 219 8.0 17.7 0.00 0.79 0.79 89 1007.1
20260506183553 17 199 3.2 12.9 0.00 0.79 0.79 90 1007.2
20260506183054 16 234 3.2 12.9 0.00 0.79 0.79 90 1007.2
20260506182553 16 199 3.2 12.9 0.00 0.79 0.79 90 1007.2
20260506182055 16 228 3.2 16.1 0.00 0.79 0.79 90 1007.2
20260506181553 16 199 8.0 19.3 0.00 0.79 0.79 90 1007.2
20260506181053 16 232 4.8 25.7 0.00 0.79 0.79 90 1007.2
20260506180553 16 230 11.3 25.7 0.00 0.79 0.79 90 1007.4
20260506175553 16 225 6.4 16.1 0.00 0.79 0.79 91 1007.3
20260506175054 16 231 6.4 19.3 0.00 0.79 0.79 90 1007.3
20260506174551 16 240 8.0 25.7 0.00 0.79 0.79 90 1007.4
20260506174052 16 222 11.3 25.7 0.00 0.79 0.79 90 1007.4
20260506173552 16 244 9.7 22.5 0.00 0.79 0.79 90 1007.3
20260506173106 16 234 11.3 22.5 0.00 0.79 0.79 90 1007.3
20260506172555 16 236 8.0 20.9 0.03 0.79 0.79 90 1007.3
20260506172051 16 230 8.0 19.3 0.03 0.79 0.79 90 1007.3
20260506171559 16 217 6.4 19.3 0.03 0.79 0.79 90 1007.4
20260506171051 16 207 6.4 22.5 0.03 0.79 0.79 90 1007.3
20260506170551 16 235 9.7 20.9 0.03 0.79 0.79 90 1007.4
20260506170050 16 232 6.4 19.3 0.03 0.79 0.79 90 1007.5
20260506165550 16 210 9.7 19.3 0.03 0.79 0.79 90 1007.5
20260506165050 16 222 9.7 20.9 0.03 0.79 0.79 91 1007.4
20260506164551 16 219 6.4 16.1 0.03 0.79 0.79 91 1007.5
20260506164051 16 212 8.0 17.7 0.03 0.79 0.79 91 1007.5
20260506163549 16 241 4.8 16.1 0.03 0.79 0.79 91 1007.5
20260506163051 16 233 9.7 19.3 0.03 0.79 0.79 91 1007.4
20260506162551 16 235 9.7 19.3 0.00 0.76 0.76 91 1007.5
20260506162051 16 188 4.8 16.1 0.00 0.76 0.76 91 1007.5
20260506161555 16 207 8.0 16.1 0.00 0.76 0.76 91 1007.5
20260506161048 16 223 4.8 12.9 0.00 0.76 0.76 92 1007.5
20260506160549 16 237 1.6 12.9 0.03 0.76 0.76 92 1007.5
20260506160057 15 252 4.8 16.1 0.03 0.76 0.76 92 1007.6
20260506155548 15 231 3.2 16.1 0.05 0.76 0.76 92 1007.5
20260506155048 15 222 3.2 17.7 0.08 0.76 0.76 92 1007.6
20260506154548 15 185 1.6 20.9 0.10 0.76 0.76 92 1007.5
20260506154048 15 191 4.8 19.3 0.13 0.76 0.76 92 1007.5
20260506153547 15 220 3.2 14.5 0.15 0.76 0.76 92 1007.5
20260506153047 15 160 4.8 14.5 0.20 0.76 0.76 92 1007.5
20260506152547 15 204 3.2 12.9 0.25 0.76 0.76 92 1007.3
20260506152048 15 180 6.4 17.7 0.38 0.76 0.76 92 1007.3
20260506151547 15 200 8.0 19.3 0.53 0.76 0.76 92 1007.3
20260506151046 15 201 8.0 20.9 0.53 0.76 0.76 92 1007.4
20260506150546 15 185 8.0 24.1 0.51 0.71 0.71 92 1007.5
20260506150046 15 188 9.7 24.1 0.51 0.71 0.71 92 1007.6
20260506145548 15 174 9.7 19.3 0.48 0.71 0.71 92 1007.7
20260506145044 15 183 6.4 14.5 0.48 0.69 0.69 92 1007.9
20260506144545 15 191 8.0 12.9 0.48 0.66 0.66 92 1008.1
20260506144043 15 209 3.2 11.3 0.46 0.64 0.64 92 1008.2
20260506143543 15 237 3.2 17.7 0.46 0.61 0.61 91 1008.3
20260506143043 15 225 8.0 17.7 0.43 0.56 0.56 91 1008.5
20260506142543 15 223 4.8 24.1 0.41 0.51 0.51 91 1008.5
20260506142041 15 237 6.4 24.1 0.28 0.38 0.38 91 1008.4
20260506141541 16 213 4.8 11.3 0.15 0.23 0.23 91 1008.2
20260506141040 15 212 4.8 12.9 0.15 0.23 0.23 91 1008.1
20260506140540 15 215 3.2 12.9 0.18 0.23 0.23 90 1007.9
20260506140045 15 232 1.6 16.1 0.18 0.23 0.23 90 1007.8
20260506135539 15 195 8.0 16.1 0.18 0.23 0.23 90 1007.8
20260506135039 15 217 1.6 16.1 0.15 0.20 0.20 90 1007.7
20260506134608 15 195 6.4 12.9 0.13 0.18 0.18 89 1007.7
20260506134038 16 209 4.8 12.9 0.13 0.18 0.18 89 1007.8
20260506133538 16 205 6.4 14.5 0.08 0.13 0.13 89 1007.8
20260506133036 16 199 8.0 24.1 0.10 0.13 0.13 88 1008.0
20260506132536 16 191 11.3 24.1 0.08 0.10 0.10 88 1007.9
20260506132035 16 173 14.5 27.4 0.08 0.10 0.10 87 1008.0
20260506131537 16 188 12.9 25.7 0.05 0.08 0.08 86 1007.9
20260506131035 16 161 11.3 22.5 0.08 0.08 0.08 86 1007.9
20260506130533 16 360 8.0 22.5 0.05 0.05 0.05 86 1007.9
20260506130033 16 202 11.3 22.5 0.05 0.05 0.05 86 1007.9
20260506125531 16 207 12.9 20.9 0.05 0.05 0.05 86 1007.8
20260506125031 16 208 9.7 20.9 0.05 0.05 0.05 86 1007.9
20260506124530 16 360 9.7 20.9 0.05 0.05 0.05 85 1008.0
20260506124032 16 360 9.7 19.3 0.05 0.05 0.05 85 1008.0
20260506123529 16 223 4.8 19.3 0.05 0.05 0.05 84 1008.0
20260506123029 16 199 9.7 19.3 0.03 0.03 0.03 84 1008.0
20260506122529 16 232 6.4 16.1 0.03 0.03 0.03 84 1008.2
20260506122027 16 223 6.4 16.1 0.03 0.03 0.03 84 1008.3
20260506121527 16 234 6.4 16.1 0.03 0.03 0.03 83 1008.5
20260506121026 16 219 6.4 16.1 0.00 0.00 0.00 83 1008.5
20260506120526 16 212 3.2 16.1 0.00 0.00 0.00 82 1008.6
20260506120025 16 360 4.8 17.7 0.00 0.00 0.00 81 1008.6
20260506115525 17 246 6.4 19.3 0.00 0.00 0.00 80 1008.6
20260506115022 17 221 9.7 16.1 0.00 0.00 0.00 78 1008.5
20260506114531 17 215 6.4 19.3 0.00 0.00 0.00 76 1008.3
20260506114019 17 360 6.4 17.7 0.00 0.00 0.00 75 1008.2
20260506113518 18 236 8.0 17.7 0.00 0.00 0.00 73 1008.0
20260506113018 18 204 3.2 17.7 0.00 0.00 0.00 72 1007.9
20260506112515 18 227 8.0 17.7 0.00 0.00 0.00 71 1007.9
20260506112015 18 231 4.8 24.1 0.00 0.00 0.00 70 1007.9
20260506111514 18 247 9.7 24.1 0.00 0.00 0.00 68 1007.9
20260506111012 18 238 6.4 27.4 0.00 0.00 0.00 68 1007.8
20260506110513 18 229 9.7 25.7 0.00 0.00 0.00 67 1007.7
20260506110015 19 360 6.4 16.1 0.00 0.00 0.00 66 1007.7
20260506105510 19 200 8.0 22.5 0.00 0.00 0.00 65 1007.5
20260506105010 19 239 9.7 22.5 0.00 0.00 0.00 64 1007.4
20260506104509 19 214 9.7 27.4 0.00 0.00 0.00 64 1007.4
20260506104009 19 360 12.9 20.9 0.00 0.00 0.00 64 1007.4
20260506103508 19 210 11.3 19.3 0.00 0.00 0.00 64 1007.3
20260506103019 19 360 6.4 20.9 0.00 0.00 0.00 64 1007.3
20260506102507 19 194 8.0 24.1 0.00 0.00 0.00 64 1007.2
20260506102007 19 199 9.7 27.4 0.00 0.00 0.00 64 1007.2
20260506101506 19 205 11.3 24.1 0.00 0.00 0.00 63 1007.2
20260506101005 19 219 8.0 22.5 0.00 0.00 0.00 63 1007.0
20260506100504 19 360 9.7 22.5 0.00 0.00 0.00 63 1007.0
20260506100003 19 360 8.0 20.9 0.00 0.00 0.00 62 1006.8
20260506095502 19 360 9.7 25.7 0.00 0.00 0.00 62 1007.0
20260506095002 19 242 14.5 25.7 0.00 0.00 0.00 61 1006.8
20260506094500 20 360 9.7 20.9 0.00 0.00 0.00 61 1006.8
20260506094100 20 218 8.0 19.3 0.00 0.00 0.00 61 1006.9
20260506093604 20 360 12.9 19.3 0.00 0.00 0.00 61 1007.0
20260506093100 20 198 8.0 25.7 0.00 0.00 0.00 60 1007.0
20260506092557 20 202 9.7 25.7 0.00 0.00 0.00 60 1007.0
20260506092100 20 198 6.4 19.3 0.00 0.00 0.00 60 1007.1
20260506091556 20 360 6.4 17.7 0.00 0.00 0.00 59 1007.1
20260506091056 20 360 8.0 22.5 0.00 0.00 0.00 59 1007.2
20260506090557 20 222 8.0 22.5 0.00 0.00 0.00 59 1007.2
20260506090054 20 238 4.8 19.3 0.00 0.00 0.00 59 1007.3
20260506085553 20 360 8.0 17.7 0.00 0.00 0.00 58 1007.3
20260506085052 20 239 11.3 17.7 0.00 0.00 0.00 58 1007.4
20260506084555 20 272 8.0 22.5 0.00 0.00 0.00 58 1007.3
20260506084055 20 360 9.7 22.5 0.00 0.00 0.00 57 1007.3
20260506083551 20 209 4.8 24.1 0.00 0.00 0.00 57 1007.3
20260506083109 20 190 6.4 24.1 0.00 0.00 0.00 57 1007.3
20260506082550 20 205 6.4 19.3 0.00 0.00 0.00 57 1007.3
20260506082052 20 249 8.0 19.3 0.00 0.00 0.00 57 1007.2
20260506081551 20 208 8.0 19.3 0.00 0.00 0.00 56 1007.3
20260506081048 20 234 4.8 17.7 0.00 0.00 0.00 56 1007.2
20260506080548 20 360 9.7 17.7 0.00 0.00 0.00 56 1007.2
20260506073043 21 207 11.3 27.4 0.00 0.00 0.00 55 1007.2
20260506072543 21 195 9.7 27.4 0.00 0.00 0.00 54 1007.4
20260506072043 21 360 8.0 22.5 0.00 0.00 0.00 54 1007.5
20260506071545 21 360 8.0 16.1 0.00 0.00 0.00 54 1007.5
20260506071041 21 223 3.2 24.1 0.00 0.00 0.00 54 1007.4
20260506070540 21 360 9.7 25.7 0.00 0.00 0.00 53 1007.5
20260506062033 21 360 9.7 29.0 0.00 0.00 0.00 51 1008.0
20260506061538 21 215 11.3 29.0 0.00 0.00 0.00 51 1008.1
20260506061033 21 360 9.7 20.9 0.00 0.00 0.00 50 1008.2